DECAYED

STARLINK-1019, 44724 (Decayed)

Orbit data source: Space-Track

STARLINK-1019, 44724 was a payload satellite owned by SpaceX/Seattle (US) in LEO that was launched on Mon, 11 Nov 2019 UTC via an FALCON 9 launch vehicle from the Air Force Eastern Test Range (AFETR). Payload-class satellites include a variety of spacecraft equipped with specific instruments for various scientific and technological missions. These include communications satellites like Starlink; space stations such as the ISS; scientific satellites like the Hubble; Earth observation satellites from companies like Planet Labs, Umbra, and HawkEye 360; GPS; miniature CubeSats for education and research; and military/defense satellites.

Not visible in the next 10 days
Identifier
44724, 2019-074M
Orbit
Decayed
Country
Flag of USUS
Related business
Manufacturer
SpaceX/Seattle
Mission
Decayed Commercial Communications
Bus & Motor
STARLINK, Unknown motor
Mass
260 kg wet, ~248 kg dry
Launch date (UTC)
2019-11-11 (7 years ago)
Launch vehicle
FALCON 9
Launch site
Air Force Eastern Test Range (AFETR)
Object type
Payload
Rocket body
Debris
Shape & HBR
Box + 1 Pan, 10.1 m
Radar Cross Section
13.562 m², Large (>1 m²)

Expand to show TLE details & history
Last TLE update: 1 month ago

TLE from 1 month ago
0 STARLINK-1019
1 44724U 19074M   26134.34384873  .14880440  12532-4  14680-3 0  9996
2 44724  53.0187 159.0555 0009964 224.5417 135.4834 16.50365492359938
Epoch: 2026-05-14T08:15Z
TLE epoch observation values (Epoch: 2026-05-14T08:15:08.530Z)
Latitude
0.00003°
Longitude
163.17911°
Altitude
143.936 km
Speed
7.818 km/s
True Right ascension
10h 36m 13s
True Declination
0° 00' 00"
Sunlit
Object was in full shadow at epoch
Visualization orbit readout
Latitude
Unknown
Longitude
Unknown
Altitude
Unknown
Speed
Unknown
Apparent Right ascension
Unknown
Apparent Declination
Unknown
Sunlit
N/A
Visualization observer readout
Local Sidereal Time
21:38:42
Azimuth
Unknown
Elevation
Unknown
Doppler factor
Unknown
Orbital elements
Apogee altitude
145.16 km
Perigee altitude
132.173 km
Semi-major axis
6,516.804 km
Eccentricity
0.001
Inclination
53.0187°
RAAN
159.0555°
Arg. of periapsis
224.5417°
True anomaly
135.56338°
Mean anomaly
135.4834°
Eccentric anomaly
135.5234°
Mean motion
4.12564 °/min
Orbital period
87.26 mins
BSTAR
0.0001468
Loading maneuver chart data...
Computing Atmospheric mass density...

Documentation

Showing up to 5 results
|